一网星座-0119星 (ONEWEB-0119 )

导读

ONEWEB-0119是英国OneWeb卫星互联网星座中的一颗低轨通信卫星,于2020年12月18日发射入轨。卫星重约147.5公斤,配备Ku波段通信天线与霍尔效应推进器,单星通信能力约7.5Gbps,设计寿命5年,旨在为全球覆盖不足区域提供高速宽带互联网服务,是OneWeb一期星座组网的组成部分。

Basic Information
目录编号:
47265
目录名称:
ONEWEB-0119
国际标识:
2020-100H
轨道中心:
EARTH
卫星名称:
一网星座-0119星
卫星全名:
一网星座-0119星 (ONEWEB-0119 )
卫星状态:
在轨 (已飞行2047 天)
发射日期:
2020-12-18 UTC
国别 :
英国 (GB)
星等 :
--
Orbit Information
数据来源 国际轨道数据 AOE轨道数据
星历时间 2026-07-27T22:39:35+0800
8小时前
查看轨道信息
2026-07-26T07:00:00+0800
1天前
查看轨道信息
半长轴 7591.865km 7591.864km
偏心率 0.0001854 0.0001608
轨道倾角 87.898° 87.897°
近地点辐角 98.735° 91.742°
升交点赤经 342.632° 342.961°
平近点角 261.399° 25.186°
近地点 1212.32km 1212.506km
远地点 1215.136km 1214.948km
周期 109.719分钟 109.719分钟
每日圈数 13.12442 13.124422
Detailed Information
平衡模式:
三轴稳定
覆盖范围:
全球
运营商:
一网卫星公司
运营商所在国:
英国
制造商(研发单位):
一网卫星公司
制造商所在国:
英国
使用方式:
暂无
Satellite Introduction
OneWeb卫星网络由648颗重约125公斤的微型卫星组成,运行在1200公里的轨道上。 每颗卫星都能够提供至少每秒8千兆位的吞吐量,以使用其高吞吐量的Ku频段有效载荷为家庭和移动平台提供互联网接入。该卫星仍在工作。
2D Orbit Map
3D Orbit Map
Orbit Altitude Analysis Chart
Orbit Inclination Analysis Chart
Orbit Comprehensive Analysis Chart
View Comprehensive Chart